Location: Ackerson Creek
(37.8210°N, 119.8757°W)
Time: 15:49:09
(UTC+00:00)

Cosmos 1553 Rocket - Pass Details

Date: 13 April 2024
Orbit: 940 x 1008 km, 82.9° (Epoch: 22 May)

Event Time Altitude Azimuth Distance (km) Brightness Sun altitude
Rises 12:07:28 0° 350° (N) 3,706 7.2 -15.5°
Reaches altitude 10° 12:10:02 10° 348° (NNW) 2,744 6.5 -15.1°
Maximum altitude 12:16:15 68° 267° (W) 1,039 3.9 -14.0°
Drops below altitude 10° 12:22:20 10° 185° (S) 2,680 6.0 -12.9°
Sets 12:24:49 0° 183° (S) 3,614 6.7 -12.4°
